Forside
METAR-TAF:

METAR-TAF

Lufthavne :

Rochelle Municipal Airport (Koritz Field)

Rochelle, Illinois, USA

Breddekreds: 41-53-35N, længdekreds: 089-04-42W, højde: 238 m

Aktuelle vejr

Denne rapport blev lavet for 14 minutter siden, kl. 02:15 UTC
Vind 6 kt fra syd
Temperatur 23°C
Fugtighed 83%
Tryk 1013 hPa
Sigt: 16.1 km
skyfri

METAR: KRPJ 250215Z AUTO 19006KT 10SM CLR 23/20 A2990 RMK AO2 T02300204

Tid: 21:29 (02:29 UTC)


TAF: fraværende

Vejrobservationer og prognoser fra mere end 4000 lufthavne (METAR og TAF).

De gule og røde prikker repræsenterer de meteorologiske stationer.

Flyt musen over at se navnet på stationen.

Så klik over at se vejr observationer og prognoser.

At skifte det kort: Klik på de grønne knapper med et sort kors for at zoome ind; på den grønne knap med en bindestreg for at zoome ud; eller på de grønne pile for tilstødende kort.


METAR-TAF: